﻿Дата;Google;AdRiver
2017-07-21;1;0
2017-07-15;1;0
2017-07-09;1;0
2017-07-01;1;0
2017-06-27;1;0
2017-06-05;1;0
2017-05-13;2;0
2017-05-04;1;0
2017-04-20;1;0
2017-04-18;1;0
2017-04-12;1;0
2017-04-11;1;0
2017-04-08;1;0
2017-04-06;1;0
2017-04-05;1;0
2017-03-27;2;0
2017-03-26;3;0
2017-03-15;1;0
2017-03-13;2;0
2017-03-12;1;0
2017-03-11;1;0
2017-03-10;3;0
2017-03-09;2;0
2017-03-08;2;0
2017-03-07;1;0
2017-03-06;2;0
2017-03-04;1;0
2017-03-02;2;0
2017-02-23;1;0
2017-02-20;1;0
2017-02-19;1;0
2017-02-15;1;0
2017-02-13;2;0
2017-02-12;3;0
2017-02-10;2;0
2017-02-09;1;0
2017-02-07;3;0
2017-01-31;2;0
2017-01-29;2;0
2017-01-28;1;0
2017-01-27;1;0
2017-01-26;1;0
2017-01-24;2;0
2017-01-23;1;0
2017-01-22;2;0
2017-01-21;2;0
2017-01-20;1;0
2017-01-19;1;0
2017-01-18;1;0
2017-01-07;3;0
2017-01-06;2;0
2017-01-05;2;0
2017-01-03;2;0
2017-01-02;3;0
2017-01-01;2;0
2016-12-26;1;0
2016-12-20;1;0
2016-12-19;1;0
2016-12-16;1;0
2016-12-15;1;0
2016-12-11;1;0
2016-12-09;1;0
2016-12-08;2;0
2016-12-07;1;0
2016-11-21;1;0
2016-11-20;3;0
2016-11-17;1;0
2016-11-16;1;0
2016-11-14;1;0
2016-11-13;2;0
2016-11-07;3;0
2016-11-06;1;0
2016-10-30;1;0
2016-08-18;1;0
2016-08-13;1;0
2016-08-07;1;0
2016-07-30;1;0
2016-07-21;1;0
2016-07-17;1;0
2016-07-12;1;0
2016-07-10;1;0
2016-06-18;1;0
2016-06-16;1;0
2016-06-15;1;0
2016-06-14;1;0
2016-06-13;2;0
2016-06-06;1;0
2016-06-04;1;0
2016-06-03;1;0
2016-06-02;1;0
2016-05-26;1;0
2016-05-24;2;0
2016-05-23;1;0
2016-05-21;2;0
2016-05-19;1;0
2016-05-17;2;0
2016-05-16;3;0
2016-05-14;1;0
2016-05-13;2;0
2016-05-12;2;0
2016-05-11;1;0
2016-05-10;2;0
2016-05-09;6;0
2016-05-08;1;0
2016-05-07;3;0
2016-05-06;4;0
2016-05-05;3;0
2016-05-03;4;0
2016-05-02;1;0
2016-05-01;1;0
2016-04-30;2;0
2016-04-29;1;0
2016-04-28;4;0
2016-04-26;3;0
2016-04-22;2;0
2016-04-20;6;0
2016-04-17;5;0
2016-04-15;1;0
2016-04-12;2;0
2016-04-06;1;0
2016-04-05;1;0
2016-04-04;2;0
2016-03-30;1;0
2016-03-23;1;0
2016-03-12;1;0
2016-03-10;1;0
2016-02-05;1;0
2016-01-29;1;0
2016-01-25;1;0
2016-01-22;2;0
2016-01-21;2;0
2016-01-14;1;0
2016-01-10;3;0
2016-01-08;1;0
2016-01-06;1;0
2015-12-31;1;0
2015-12-30;3;0
2015-12-29;1;0
2015-12-27;2;0
2015-12-26;1;0
2015-12-24;2;0
2015-12-23;2;0
2015-12-19;1;0
2015-12-17;1;0
2015-12-15;1;0
2015-12-14;2;0
2015-12-11;1;0
2015-12-10;2;0
2015-12-08;2;0
2015-12-04;2;0
2015-11-27;2;0
2015-11-03;2;0
2015-11-02;1;0
2015-10-31;1;0
2015-10-29;2;0
2015-10-28;4;0
2015-10-27;2;0
2015-10-21;1;0
2015-10-20;1;0
2015-10-19;1;0
2015-10-14;2;0
2015-10-13;9;0
2015-10-12;6;0
2015-10-11;5;0
2015-10-10;8;0
2015-10-09;8;0
2015-10-08;1;0
2015-10-05;1;0
2015-10-04;3;0
2015-10-02;1;0
2015-09-22;3;0
2015-09-21;1;0
2015-09-19;3;0
2015-09-18;1;0
2015-09-14;1;0
2015-09-08;1;0
2015-09-01;2;0
2015-08-28;1;0
2015-08-21;1;0
2015-08-19;1;0
2015-08-18;2;0
2015-08-15;1;0
2015-08-12;1;0
2015-08-11;2;0
2015-08-10;11;0
2015-08-09;4;0
2015-08-08;3;0
2015-08-01;1;0
2015-07-31;1;0
2015-07-28;3;0
2015-07-25;1;0
2015-07-21;2;0
2015-07-20;1;0
2015-07-19;6;0
2015-07-18;8;0
2015-07-17;7;0
2015-07-14;7;0
2015-07-13;1;0
2015-07-11;3;0
2015-07-10;1;0
2015-07-09;1;0
2015-07-08;22;0
2015-07-07;17;0
2015-06-28;7;0
2015-06-27;24;0
2015-06-26;2;0
2015-06-25;3;0
2015-06-24;25;0
2015-06-23;36;0
2015-06-22;2;0
2015-06-21;2;0
2015-06-20;2;0
2015-06-19;25;0
2015-06-18;8;0
2015-06-17;15;0
2015-06-16;5;0
2015-06-15;3;0
2015-06-14;14;0
2015-06-13;6;0
2015-06-12;13;0
2015-06-10;4;0
2015-06-09;1;0
2015-06-08;5;0
2015-06-07;3;0
2015-06-06;7;0
2015-06-05;8;0
2015-06-04;17;0
2015-06-03;17;0
2015-06-02;14;0
2015-06-01;27;0
2015-05-31;26;0
2015-05-30;16;0
2015-05-27;18;0
2015-05-26;25;0
2015-05-25;12;0
2015-05-24;8;0
2015-05-23;3;0
2015-05-22;5;0
2015-05-21;6;0
2015-05-20;17;0
2015-05-19;7;0
2015-05-18;3;0
2015-05-17;9;0
2015-05-16;1;0
2015-05-15;1;0
2015-05-14;14;0
2015-05-13;12;0
2015-05-12;20;0
2015-05-11;2;0
2015-05-10;11;0
2015-05-08;90;0
2015-05-07;21;0
2015-05-06;1;0
2015-05-05;47;0
2015-05-02;9;0
2015-05-01;11;0
2015-04-30;33;0
2015-04-29;13;0
2015-04-28;17;0
2015-04-27;39;0
2015-04-26;51;0
2015-04-25;115;0
2015-04-24;93;0
2015-04-23;5;0
2015-04-22;116;0
2015-04-21;89;0
2015-04-20;155;0
2015-04-19;195;0
2015-04-18;217;0
2015-04-17;171;0
2015-04-16;168;0
2015-04-15;163;0
2015-04-14;208;0
2015-04-13;6;0
2015-04-12;205;0
2015-04-11;195;0
2015-04-10;195;0
2015-04-09;160;0
2015-04-08;131;0
2015-04-07;166;0
2015-04-06;165;0
2015-04-05;154;0
2015-04-04;133;0
2015-04-03;149;0
2015-04-02;1;0
2015-03-31;54;0
2015-03-30;14;0
2015-03-29;1;0
2015-03-28;1;0
2015-03-27;141;0
2015-03-26;129;0
2015-03-25;165;0
2015-03-24;167;0
2015-03-23;137;0
2015-03-22;147;0
2015-03-21;152;0
2015-03-20;141;0
2015-03-19;134;0
2015-03-18;151;0
2015-03-17;147;0
2015-03-16;138;0
2015-03-15;6;0
2015-03-14;122;0
2015-03-13;129;0
2015-03-12;162;0
2015-03-11;117;0
2015-03-10;163;0
2015-03-09;142;0
2015-03-08;134;0
2015-03-07;120;0
2015-03-06;151;0
2015-03-05;148;0
2015-03-04;163;0
2015-03-03;138;0
2015-03-02;113;0
2015-03-01;131;0
2015-02-28;184;0
2015-02-27;189;0
2015-02-26;183;0
2015-02-25;234;0
2015-02-24;210;0
2015-02-23;255;0
2015-02-22;212;0
2015-02-21;235;0
2015-02-20;232;0
2015-02-19;227;0
2015-02-18;237;0
2015-02-17;239;0
2015-02-16;192;0
2015-02-15;224;0
2015-02-14;217;0
2015-02-13;239;0
2015-02-12;219;0
2015-02-11;252;0
2015-02-05;52;0
2015-02-04;181;0
2015-02-03;196;0
2015-02-02;226;0
2015-02-01;221;0
2015-01-31;267;0
2015-01-30;209;0
2015-01-29;178;0
2015-01-28;164;0
2015-01-27;189;0
2015-01-26;222;0
2015-01-25;180;0
2015-01-24;251;0
2015-01-23;198;0
2015-01-22;203;0
2015-01-21;248;0
2015-01-20;200;0
2015-01-19;189;0
2015-01-18;221;0
2015-01-17;235;0
2015-01-16;228;0
2015-01-15;181;0
2015-01-05;5;0
2015-01-04;143;0
2015-01-03;169;0
2015-01-02;165;0
2015-01-01;203;0
2014-12-31;188;0
2014-12-30;178;0
2014-12-29;156;0
2014-12-28;169;0
2014-12-27;175;0
2014-12-26;167;0
2014-12-25;134;0
2014-12-24;157;0
2014-12-23;147;0
2014-12-22;154;0
2014-12-21;182;0
2014-12-20;190;0
2014-12-19;191;0
2014-12-18;184;0
2014-12-17;208;0
2014-12-16;225;0
2014-12-15;169;0
2014-12-14;171;0
2014-12-13;149;0
2014-12-12;164;0
2014-12-11;183;0
2014-12-10;178;0
2014-12-09;201;0
2014-12-08;212;0
2014-12-07;2;0
2014-12-06;150;0
2014-12-05;184;0
2014-12-04;120;0
2014-12-03;130;0
2014-12-02;134;0
2014-12-01;104;0
2014-11-30;161;0
2014-11-29;157;0
2014-11-28;136;0
2014-11-27;125;0
2014-11-26;160;0
2014-11-25;132;0
2014-11-24;149;0
2014-11-23;160;0
2014-11-22;154;0
2014-11-21;123;0
2014-11-20;159;0
2014-11-19;114;0
2014-11-18;146;0
2014-11-17;115;0
2014-11-16;174;0
2014-11-15;115;0
2014-11-14;134;0
2014-11-13;126;0
2014-11-12;137;0
2014-11-11;143;0
2014-11-09;131;0
2014-11-08;145;0
2014-11-07;120;0
2014-11-06;141;0
2014-11-05;140;0
2014-11-04;118;0
2014-11-03;140;0
2014-11-02;167;0
2014-11-01;155;0
2014-10-31;114;0
2014-10-30;124;0
2014-10-29;98;0
2014-10-28;108;0
2014-10-27;141;0
2014-10-26;152;0
2014-10-25;165;0
2014-10-24;139;0
2014-10-23;126;0
2014-10-22;120;0
2014-10-21;134;0
2014-10-20;161;0
2014-10-19;149;0
2014-10-18;147;0
2014-10-17;148;0
2014-10-16;208;0
2014-10-15;134;0
2014-10-14;157;0
2014-10-13;111;0
2014-10-12;167;0
2014-10-11;128;0
2014-10-10;168;0
2014-10-09;195;0
2014-10-08;140;0
2014-10-07;177;0
2014-10-06;164;0
2014-10-05;152;0
2014-10-04;195;0
2014-10-03;300;0
2014-10-02;353;0
2014-10-01;326;0
2014-09-30;215;0
2014-09-29;214;0
2014-09-28;222;0
2014-09-25;4;0
2014-09-24;203;0
2014-09-23;196;0
2014-09-22;120;0
2014-09-21;151;0
2014-09-20;88;0
2014-09-19;76;0
2014-09-18;108;0
2014-09-17;97;0
2014-09-16;130;0
2014-09-15;120;0
2014-09-14;149;0
2014-09-13;113;0
2014-09-12;109;0
2014-09-11;173;0
2014-09-10;170;0
2014-09-09;129;0
2014-09-08;153;0
2014-09-07;149;0
2014-09-06;161;0
2014-09-05;120;0
2014-09-04;54;0
2014-09-03;61;0
2014-09-02;81;0
2014-09-01;116;0
2014-08-31;80;0
2014-08-30;125;0
2014-08-29;126;0
2014-08-28;182;0
2014-08-27;165;0
2014-08-26;146;0
2014-08-25;117;0
2014-08-24;181;0
2014-08-23;122;0
2014-08-22;13;0
2014-08-21;76;0
2014-08-20;179;0
2014-08-19;188;0
2014-08-18;245;0
2014-08-17;233;0
2014-08-16;211;0
2014-08-15;171;0
2014-08-14;161;0
2014-08-13;159;0
2014-08-12;141;0
2014-08-11;111;0
2014-08-10;192;0
2014-08-09;150;0
2014-08-08;119;0
2014-08-07;154;0
2014-08-06;184;0
2014-08-05;7;0
2014-08-04;99;0
2014-08-03;157;0
2014-08-02;141;0
2014-08-01;91;0
2014-07-31;160;0
2014-07-30;203;0
2014-07-29;150;0
2014-07-28;170;0
2014-07-27;164;0
2014-07-26;166;0
2014-07-25;131;0
2014-07-24;105;0
2014-07-23;142;0
2014-07-22;135;0
2014-07-21;129;0
2014-07-20;152;0
2014-07-19;169;0
2014-07-18;183;0
2014-07-17;151;0
2014-07-16;175;0
2014-07-15;148;0
2014-07-14;138;0
2014-07-13;188;0
2014-07-12;189;0
2014-07-11;153;0
2014-07-10;143;0
2014-07-09;124;0
2014-07-08;121;0
2014-07-07;105;0
2014-07-06;83;0
2014-07-05;69;0
2014-07-04;75;0
2014-07-03;72;0
2014-07-02;52;0
2014-07-01;61;0
2014-06-30;39;0
2014-06-29;53;0
2014-06-28;60;0
2014-06-27;58;0
2014-06-26;90;0
2014-06-25;75;0
2014-06-24;57;0
2014-06-23;87;0
2014-06-22;109;0
2014-06-21;87;0
2014-06-20;70;0
2014-06-19;88;0
2014-06-18;82;0
2014-06-17;105;0
2014-06-16;107;0
2014-06-15;81;0
2014-06-14;78;0
2014-06-13;109;0
2014-06-12;79;0
2014-06-11;102;0
2014-06-10;86;0
2014-06-09;90;0
2014-06-08;126;0
2014-06-07;103;0
2014-06-06;121;0
2014-06-05;139;0
2014-06-04;137;0
2014-06-03;121;0
2014-06-02;130;0
2014-06-01;100;0
2014-05-31;88;0
2014-05-30;97;0
2014-05-29;85;0
2014-05-28;91;0
2014-05-27;85;0
2014-05-26;72;0
2014-05-25;81;0
2014-05-24;105;0
2014-05-23;96;0
2014-05-22;74;0
2014-05-21;107;0
2014-05-20;74;0
2014-05-19;103;0
2014-05-18;106;0
2014-05-17;105;0
2014-05-16;81;0
2014-05-15;118;0
2014-05-14;113;0
2014-05-13;67;0
2014-05-12;136;0
2014-05-11;129;0
2014-05-10;103;0
2014-05-09;109;0
2014-05-08;99;0
2014-05-07;107;0
2014-05-06;115;0
2014-05-05;129;0
2014-05-04;180;0
2014-05-03;115;0
2014-05-02;88;0
2014-05-01;95;0
2014-04-30;97;0
2014-04-29;41;0
2014-04-28;57;0
2014-04-27;45;0
2014-04-26;41;0
2014-04-25;48;0
2014-04-24;55;0
2014-04-23;51;0
2014-04-22;33;0
2014-04-21;30;0
2014-04-20;28;0
2014-04-19;32;0
2014-04-18;32;0
2014-04-14;1;0
2014-04-10;12;0
2014-04-09;19;0
2014-04-08;50;0
2014-04-07;53;0
2014-04-05;4;0
2014-04-04;5;0
2014-04-03;3;0
2014-04-02;60;0
2014-04-01;61;0
2014-03-31;49;0
2014-03-30;52;0
2014-03-29;49;0
2014-03-28;46;0
2014-03-27;53;0
2014-03-26;66;0
2014-03-25;54;0
2014-03-24;60;0
2014-03-20;1;0
2014-02-14;1;0
2014-02-05;1;0
2014-01-07;1;0
2012-11-11;1;0
2012-11-07;37;0
2012-11-06;89;0
2012-11-05;35;0
2012-11-04;37;0
2012-11-03;25;0
2012-11-02;34;0
2012-11-01;47;0
2012-10-31;52;0
2012-10-30;40;0
2012-10-29;13;0
2012-10-28;31;0
2012-10-27;46;0
2012-10-26;20;0
2012-10-24;1;0
2012-10-23;15;0
2012-10-22;14;0
2012-10-21;16;0
2012-10-20;20;0
2012-10-19;6;0
2012-10-18;15;0
2012-10-17;4;0
2012-10-16;13;0
2012-10-15;3;0
2012-10-14;15;0
2012-10-13;5;0
2012-10-12;19;0
2012-10-11;4;0
2012-10-10;21;0
2012-10-09;1;0
2012-10-08;7;0
2012-10-07;21;1
2012-10-06;5;0
2012-10-05;17;0
2012-10-04;5;0
2012-10-03;22;0
2012-10-02;5;0
2012-10-01;15;0
2012-09-30;12;0
2012-09-27;9;0
2012-09-26;9;0
2012-09-25;10;0
2012-09-24;17;0
2012-09-23;19;0
2012-09-22;20;0
2012-09-21;17;0
2012-09-20;22;0
2012-09-19;20;0
2012-09-18;15;0
2012-09-17;18;0
2012-09-16;23;0
2012-09-15;9;0
2012-09-14;19;0
2012-09-13;22;0
2012-09-12;11;0
2012-09-11;10;0
2012-09-10;12;0
2012-09-09;7;0
2012-08-20;15;0
2012-08-19;10;0
2012-08-18;18;0
2012-08-17;15;0
2012-08-16;20;0
2012-08-15;21;0
2012-08-14;16;0
2012-08-13;14;0
2012-08-12;12;0
2012-08-11;10;0
2012-08-10;12;0
2012-08-09;12;0
2012-08-08;22;0
2012-08-07;18;0
2012-08-06;13;0
2012-08-05;9;0
2012-08-04;13;0
2012-08-03;5;0
2012-07-13;14;0
2012-07-12;18;0
2012-07-11;23;0
2012-07-10;22;0
2012-07-09;28;0
2012-07-08;15;0
2012-07-07;13;0
2012-07-06;17;0
2012-07-05;15;0
2012-07-04;9;0
2012-07-03;1;0
2012-06-20;1;0
2012-06-18;14;0
2012-06-17;17;0
2012-06-16;24;0
2012-06-15;27;0
2012-06-14;22;0
2012-06-13;27;0
2012-06-12;35;0
2012-06-11;26;0
2012-06-10;34;0
2012-06-09;23;0
2012-06-08;31;0
2012-06-07;33;1
2012-06-04;1;0
2012-06-03;13;0
2012-06-02;27;0
2012-06-01;30;0
2012-05-31;20;0
2012-05-30;30;0
2012-05-29;22;0
2012-05-28;15;0
2012-05-27;11;0
2012-05-26;12;0
2012-05-25;21;0
2012-05-24;26;0
2012-05-23;9;0
2012-05-22;21;0
2012-05-21;19;0
2012-05-20;12;0
2012-05-18;2;0
2011-11-12;0;1
2011-11-10;0;4
2011-11-09;0;3
2011-11-07;0;2
2011-11-04;0;1
2011-11-03;0;2
2011-11-02;0;1
2011-11-01;0;1
2011-10-31;0;1
2011-10-30;0;1
2011-10-29;0;2
2011-10-28;0;1
2011-10-27;0;2
2011-10-26;0;3
2011-10-25;0;1
2011-10-24;0;1
2011-10-21;0;1
2011-10-20;0;1
2011-10-19;0;2
2011-10-14;0;1
2011-10-13;0;1
2011-10-10;0;1
2011-10-09;0;1
2011-10-05;0;1
2011-10-04;0;1
2011-10-03;0;1
2011-09-30;0;1
2011-09-29;0;5
2011-09-27;0;2
2011-09-26;0;3
2011-09-23;0;2
2011-09-21;0;3
2011-09-20;0;1
2011-09-19;0;4
2011-09-17;0;1
2011-09-16;0;1
2011-09-15;0;1
2011-09-14;0;2
2011-09-13;0;4
2011-09-12;0;3
2011-09-08;0;5
2011-09-06;0;2
2011-09-05;0;1
2011-09-03;0;1
2011-09-02;0;2
2011-09-01;0;1
2011-08-30;0;1
2011-08-26;0;2
2011-08-23;0;1
2011-08-20;0;1
2011-08-19;0;4
2011-08-18;0;1
2011-08-17;0;2
2011-08-13;0;1
2011-08-10;0;1
2011-08-07;0;1
2011-08-02;0;2
2011-07-30;0;2
2011-07-28;0;1
2011-07-27;0;1
2011-07-22;0;2
2011-07-20;0;1
2011-07-17;0;2
2011-07-16;0;1
2011-07-15;0;2
2011-07-07;0;6
2011-07-06;0;3
2011-07-05;0;1
2011-07-04;0;2
2011-06-28;0;1
2011-06-27;0;1
2011-06-26;0;3
2011-06-24;0;2
2011-06-23;0;2
2011-06-22;0;4
2011-06-21;0;1
2011-06-20;0;2
2011-06-19;0;2
2011-06-16;0;1
2011-06-14;0;2
2011-06-08;0;3
2011-06-07;0;3
2011-06-06;0;4
2011-06-05;0;2
2011-06-04;0;2
2011-06-03;0;2
2011-06-02;0;3
2011-06-01;0;1
2011-05-30;0;2
2011-05-29;0;1
2011-05-28;0;1
2011-05-27;0;1
2011-05-26;0;1
2011-05-25;0;2
2011-05-24;0;2
2011-05-23;0;4
2011-05-20;0;5
2011-05-19;0;1
2011-05-18;0;1
2011-05-16;0;2
2011-05-15;0;1
2011-05-14;0;2
2011-05-13;0;3
2011-05-12;0;4
2011-05-11;0;2
2011-05-10;0;3
2011-05-06;0;2
2011-05-03;0;1
2011-05-02;0;1
2011-04-29;0;2
2011-04-28;0;5
2011-04-27;0;9
2011-04-26;0;11
2011-04-22;0;1
2011-04-21;0;1
2011-04-20;0;2
2011-03-09;1;0
2011-02-26;1;0
2011-02-23;1;0
2011-02-20;1;0
2011-02-10;1;0
2011-01-27;1;0
2011-01-26;1;0
2011-01-23;8;0
2011-01-22;2;0
2011-01-21;1;0
2011-01-20;7;0
2011-01-19;3;0
2011-01-18;4;0
2011-01-17;2;0
2011-01-16;5;0
2011-01-15;9;0
2011-01-14;7;0
2011-01-13;11;0
2011-01-12;12;0
2011-01-11;14;0
2011-01-10;6;0
2011-01-09;5;0
2011-01-08;2;0
2011-01-07;2;0
2011-01-05;1;0
2011-01-04;3;0
2011-01-03;2;0
2011-01-02;1;0
2011-01-01;1;0
2010-12-29;2;0
2010-12-28;2;0
2010-12-27;4;0
2010-12-26;9;0
2010-12-25;11;0
2010-12-22;6;0
2010-12-21;1;0
2010-12-20;1;0
2010-12-19;8;0
2010-12-18;7;0
2010-12-17;5;0
2010-12-16;9;0
2010-12-15;9;0
2010-12-10;0;10
2010-12-09;0;17
2010-12-08;0;24
2010-12-07;0;37
2010-12-06;0;30
2010-12-05;0;17
2010-12-04;0;26
2010-12-03;0;37
2010-12-02;0;45
2010-12-01;0;45
2010-11-30;0;72
2010-11-29;0;57
2010-11-28;0;22
2010-11-27;0;26
2010-11-26;0;41
2010-11-25;0;43
2010-11-24;0;40
2010-11-23;0;39
2010-11-22;0;34
2010-11-21;0;19
2010-11-20;0;15
2010-11-19;0;24
2010-11-18;0;42
2010-11-17;0;31
2010-11-16;0;10
2010-11-15;0;8
2010-11-14;0;10
2010-11-13;0;16
2010-11-12;0;11
2010-11-11;0;12
2010-11-10;0;14
2010-11-09;0;7
2010-11-08;0;16
2010-11-07;0;17
2010-11-06;0;15
2010-11-05;0;16
2010-11-04;0;16
2010-11-03;0;12
2010-11-02;0;6
2010-11-01;0;14
2010-10-31;0;1
